TimeIST,TemperatureF,Dew PointF,Humidity,Sea Level PressureIn,VisibilityMPH,Wind Direction,Wind SpeedMPH,Gust SpeedMPH,PrecipitationIn,Events,Conditions,WindDirDegrees,DateUTC
12:00 AM,50.0,48.2,94,30.09,6.2,WSW,5.8,-,N/A,,Mostly Cloudy,250,2013-05-19 23:00:00
12:30 AM,50.0,48.2,94,30.09,6.2,West,6.9,-,N/A,,Mostly Cloudy,260,2013-05-19 23:30:00
1:00 AM,50,48,91,30.10,12,WSW,6.7,,,,Overcast,250,2013-05-20 00:00:00
1:00 AM,50.0,48.2,94,30.09,6.2,WSW,6.9,-,N/A,,Mostly Cloudy,250,2013-05-20 00:00:00
1:30 AM,50.0,48.2,94,30.09,6.2,WSW,4.6,-,N/A,,Mostly Cloudy,240,2013-05-20 00:30:00
2:00 AM,50.0,48.2,94,30.09,6.2,West,4.6,-,N/A,,Mostly Cloudy,260,2013-05-20 01:00:00
2:30 AM,50.0,48.2,94,30.09,6.2,West,6.9,-,N/A,,Mostly Cloudy,260,2013-05-20 01:30:00
3:00 AM,50.0,48.2,94,30.09,6.2,West,8.1,-,N/A,,Mostly Cloudy,260,2013-05-20 02:00:00
3:30 AM,50.0,48.2,94,30.09,6.2,West,8.1,-,N/A,,Mostly Cloudy,270,2013-05-20 02:30:00
4:00 AM,50.0,48.2,94,30.09,6.2,West,6.9,-,N/A,,Mostly Cloudy,260,2013-05-20 03:00:00
4:30 AM,50.0,48.2,94,30.09,6.2,WSW,6.9,-,N/A,,Mostly Cloudy,250,2013-05-20 03:30:00
5:00 AM,50.0,50.0,100,30.06,6.2,WSW,6.9,-,N/A,,Mostly Cloudy,240,2013-05-20 04:00:00
5:30 AM,51.8,50.0,94,30.06,6.2,WSW,4.6,-,N/A,,Mostly Cloudy,250,2013-05-20 04:30:00
6:00 AM,51.8,50.0,94,30.06,6.2,West,5.8,-,N/A,,Light Drizzle,270,2013-05-20 05:00:00
6:30 AM,51.8,50.0,94,30.09,5.0,West,5.8,-,N/A,,Light Drizzle,260,2013-05-20 05:30:00
7:00 AM,51,50,97,30.09,5,West,6.7,,,Rain,Light Drizzle,260,2013-05-20 06:00:00
7:00 AM,51.8,50.0,94,30.06,5.0,West,5.8,-,N/A,,Light Drizzle,260,2013-05-20 06:00:00
7:30 AM,51.8,50.0,94,30.09,5.0,West,6.9,-,N/A,,Mostly Cloudy,270,2013-05-20 06:30:00
8:00 AM,51.8,50.0,94,30.09,5.0,WNW,5.8,-,N/A,,Mostly Cloudy,290,2013-05-20 07:00:00
8:30 AM,51.8,51.8,100,30.09,1.9,WNW,5.8,-,N/A,,Light Drizzle,300,2013-05-20 07:30:00
9:00 AM,51.8,51.8,100,30.09,-9999.0,NNW,5.8,-,N/A,,Light Drizzle,330,2013-05-20 08:00:00
9:30 AM,51.8,51.8,100,30.09,4.3,WSW,8.1,-,N/A,,Mostly Cloudy,240,2013-05-20 08:30:00
10:00 AM,53.6,50.0,88,30.09,5.6,NNW,9.2,-,N/A,,Mostly Cloudy,330,2013-05-20 09:00:00
10:30 AM,51.8,51.8,100,30.12,3.7,NW,8.1,-,N/A,,Mostly Cloudy,320,2013-05-20 09:30:00
11:00 AM,53.6,50.0,88,30.12,6.2,NW,10.4,-,N/A,,Mostly Cloudy,320,2013-05-20 10:00:00
11:30 AM,53.6,50.0,88,30.12,6.2,NNW,15.0,-,N/A,,Mostly Cloudy,330,2013-05-20 10:30:00
12:00 PM,53.6,50.0,88,30.12,6.2,NNW,15.0,-,N/A,,Mostly Cloudy,330,2013-05-20 11:00:00
12:30 PM,55.4,50.0,82,30.12,6.2,NNW,13.8,-,N/A,,Mostly Cloudy,340,2013-05-20 11:30:00
1:00 PM,54,50,82,30.14,16,NW,11.2,,,,Partly Cloudy,320,2013-05-20 12:00:00
1:00 PM,53.6,50.0,88,30.12,6.2,NW,11.5,-,N/A,,Mostly Cloudy,320,2013-05-20 12:00:00
1:30 PM,55.4,50.0,82,30.12,6.2,North,11.5,-,N/A,,Mostly Cloudy,350,2013-05-20 12:30:00
2:00 PM,55.4,50.0,82,30.12,6.2,NNW,11.5,-,N/A,,Mostly Cloudy,330,2013-05-20 13:00:00
2:30 PM,55.4,50.0,82,30.12,6.2,NNW,12.7,-,N/A,,Mostly Cloudy,330,2013-05-20 13:30:00
3:00 PM,55.4,50.0,82,30.12,6.2,NW,15.0,-,N/A,,Mostly Cloudy,320,2013-05-20 14:00:00
3:30 PM,55.4,50.0,82,30.12,6.2,NNW,16.1,-,N/A,,Mostly Cloudy,330,2013-05-20 14:30:00
4:00 PM,55.4,50.0,82,30.12,6.2,NW,17.3,-,N/A,,Mostly Cloudy,320,2013-05-20 15:00:00
4:30 PM,57.2,50.0,77,30.12,6.2,NNW,13.8,-,N/A,,Mostly Cloudy,340,2013-05-20 15:30:00
5:00 PM,57.2,50.0,77,30.12,6.2,North,13.8,-,N/A,,Mostly Cloudy,350,2013-05-20 16:00:00
5:30 PM,57.2,50.0,77,30.15,6.2,North,16.1,-,N/A,,Mostly Cloudy,360,2013-05-20 16:30:00
6:00 PM,55.4,48.2,77,30.15,6.2,NNW,12.7,-,N/A,,Mostly Cloudy,340,2013-05-20 17:00:00
6:30 PM,55.4,48.2,77,30.15,6.2,North,15.0,-,N/A,,Mostly Cloudy,350,2013-05-20 17:30:00
7:00 PM,56,49,69,30.17,16,North,13.4,,,,Mostly Cloudy,0,2013-05-20 18:00:00
7:30 PM,53.6,48.2,82,30.15,6.2,NNW,16.1,-,N/A,,Mostly Cloudy,340,2013-05-20 18:30:00
8:00 PM,55.4,48.2,77,30.18,6.2,North,13.8,-,N/A,,Mostly Cloudy,350,2013-05-20 19:00:00
8:30 PM,53.6,48.2,82,30.18,6.2,NNW,12.7,-,N/A,,Mostly Cloudy,340,2013-05-20 19:30:00
9:00 PM,53.6,46.4,77,30.18,6.2,NNW,16.1,-,N/A,,Mostly Cloudy,340,2013-05-20 20:00:00
9:30 PM,51.8,46.4,82,30.21,6.2,North,11.5,-,N/A,,Mostly Cloudy,350,2013-05-20 20:30:00
10:00 PM,51.8,48.2,88,30.21,6.2,NNW,11.5,-,N/A,,Mostly Cloudy,340,2013-05-20 21:00:00
10:30 PM,51.8,46.4,82,30.21,6.2,NNW,10.4,-,N/A,,Mostly Cloudy,340,2013-05-20 21:30:00
11:00 PM,51.8,48.2,88,30.21,6.2,NNW,9.2,-,N/A,,Overcast,340,2013-05-20 22:00:00
11:30 PM,51.8,48.2,88,30.18,6.2,NNW,9.2,-,N/A,,Overcast,340,2013-05-20 22:30:00